Zurück zum Katalog

STARLINK-35365

AktivKommunikationVLEO
NORAD 66186·PAYLOAD·🇺🇸 United States

Gestartet Oct 26, 2025 von Cape Canaveral Space Force Station

Loading…

Nächste Überflüge (nächste 24 Stunden)

TLE

AktuellSource: CelesTrak SupGP

Epoche: Sep 14, 2026, 15:03 UTC

1 66186C 25243K   26257.62756944 -.00019420  00000+0 -57358-3 0  2573
2 66186  53.1571  85.2586 0001220  99.0924 304.7113 15.34410426    13

Verfolge STARLINK-35365 in Echtzeit mit AllMySat

Download on the App Store